| time (UTC) | temp F | wind direction | speed knots | gust knots | rain 1hr in | rain 24hr in | rain mn in | humidity % | barometer mb |
| 20260506050903 | 36 | 0 | 0.0 | 0.0 | 0.00 | 0.00 | 0.00 | 84 | 1009.7 |
| 20260506044503 | 35 | 327 | 0.0 | 1.7 | 0.00 | 0.00 | 0.00 | 84 | 1009.7 |
| 20260506043603 | 35 | 0 | 0.0 | 0.0 | 0.00 | 0.00 | 0.00 | 84 | 1009.7 |
| 20260506042707 | 35 | 0 | 0.0 | 0.0 | 0.00 | 0.00 | 0.00 | 84 | 1009.7 |
| 20260506041808 | 35 | 0 | 0.0 | 0.0 | 0.00 | 0.00 | 0.00 | 84 | 1009.7 |
| 20260506040907 | 36 | 0 | 0.0 | 0.0 | 0.00 | 0.00 | 0.00 | 84 | 1009.8 |
| 20260506040007 | 36 | 0 | 0.0 | 0.0 | 0.00 | 0.00 | 0.00 | 84 | 1009.8 |
| 20260506035428 | 36 | 321 | 0.0 | 0.9 | 0.00 | 0.00 | 0.00 | 84 | 1009.8 |
| 20260506034507 | 36 | 321 | 0.0 | 0.9 | 0.00 | 0.00 | 0.00 | 84 | 1009.8 |
| 20260506033628 | 36 | 0 | 0.0 | 0.0 | 0.00 | 0.00 | 0.00 | 84 | 1009.8 |
| 20260506032707 | 36 | 0 | 0.0 | 0.0 | 0.00 | 0.00 | 0.00 | 84 | 1009.8 |
| 20260506031807 | 36 | 305 | 0.0 | 0.9 | 0.00 | 0.00 | 0.00 | 84 | 1009.9 |
| 20260506030908 | 36 | 305 | 0.0 | 1.7 | 0.00 | 0.00 | 0.00 | 83 | 1010.0 |
| 20260506030007 | 36 | 0 | 0.0 | 0.0 | 0.00 | 0.00 | 0.00 | 83 | 1010.0 |
| 20260506025407 | 36 | 0 | 0.0 | 0.0 | 0.00 | 0.00 | 0.00 | 83 | 1009.9 |
| 20260506024507 | 36 | 304 | 0.0 | 1.7 | 0.00 | 0.00 | 0.00 | 83 | 1009.9 |
| 20260506023606 | 36 | 316 | 0.0 | 0.9 | 0.00 | 0.00 | 0.00 | 83 | 1009.9 |
| 20260506022706 | 36 | 315 | 0.0 | 2.6 | 0.00 | 0.00 | 0.00 | 83 | 1009.9 |
| 20260506021828 | 37 | 320 | 0.0 | 0.9 | 0.00 | 0.00 | 0.00 | 83 | 1009.9 |
| 20260506020906 | 37 | 0 | 0.0 | 0.0 | 0.00 | 0.00 | 0.00 | 83 | 1009.9 |
| 20260506020027 | 37 | 327 | 0.0 | 1.7 | 0.00 | 0.00 | 0.00 | 83 | 1010.1 |
| 20260506015406 | 37 | 328 | 0.0 | 1.7 | 0.00 | 0.00 | 0.00 | 83 | 1010.0 |
| 20260506014507 | 37 | 339 | 0.0 | 1.7 | 0.00 | 0.00 | 0.00 | 83 | 1010.1 |
| 20260506013606 | 38 | 0 | 0.0 | 0.0 | 0.00 | 0.00 | 0.00 | 83 | 1010.0 |
| 20260506012706 | 38 | 324 | 0.0 | 0.9 | 0.00 | 0.00 | 0.00 | 83 | 1010.2 |
| 20260506011807 | 38 | 318 | 0.0 | 0.9 | 0.00 | 0.00 | 0.00 | 83 | 1010.1 |
| 20260506010906 | 38 | 315 | 0.0 | 0.9 | 0.00 | 0.00 | 0.00 | 83 | 1010.1 |
| 20260506010027 | 38 | 315 | 0.0 | 0.9 | 0.00 | 0.00 | 0.00 | 83 | 1010.2 |
| 20260506005427 | 38 | 319 | 0.0 | 2.6 | 0.00 | 0.00 | 0.00 | 84 | 1010.1 |
| 20260506004527 | 38 | 321 | 0.0 | 1.7 | 0.00 | 0.00 | 0.00 | 84 | 1010.2 |
| 20260506003627 | 38 | 317 | 0.0 | 1.7 | 0.00 | 0.00 | 0.00 | 83 | 1010.2 |
| 20260506002706 | 38 | 308 | 0.0 | 0.9 | 0.00 | 0.00 | 0.00 | 83 | 1010.2 |
| 20260506001827 | 39 | 308 | 0.0 | 0.9 | 0.00 | 0.00 | 0.00 | 83 | 1010.3 |
| 20260506000906 | 39 | 316 | 0.0 | 1.7 | 0.00 | 0.00 | 0.00 | 83 | 1010.4 |
| 20260506000006 | 39 | 314 | 0.0 | 1.7 | 0.00 | 0.00 | 0.00 | 83 | 1010.4 |
| 20260505235406 | 40 | 313 | 0.0 | 1.7 | 0.00 | 0.00 | 0.00 | 83 | 1010.5 |
| 20260505234506 | 40 | 319 | 0.0 | 0.9 | 0.00 | 0.00 | 0.00 | 82 | 1010.5 |
| 20260505233606 | 40 | 316 | 0.0 | 1.7 | 0.00 | 0.00 | 0.00 | 82 | 1010.5 |
| 20260505232706 | 40 | 319 | 0.0 | 0.9 | 0.00 | 0.00 | 0.00 | 82 | 1010.5 |
| 20260505231806 | 41 | 0 | 0.0 | 0.0 | 0.00 | 0.00 | 0.00 | 82 | 1010.5 |
| 20260505230927 | 41 | 319 | 0.0 | 0.9 | 0.00 | 0.00 | 0.00 | 82 | 1010.7 |
| 20260505230006 | 41 | 319 | 0.0 | 0.9 | 0.00 | 0.00 | 0.00 | 82 | 1010.7 |
| 20260505225406 | 41 | 323 | 0.0 | 0.9 | 0.00 | 0.00 | 0.00 | 82 | 1010.7 |
| 20260505224506 | 41 | 0 | 0.0 | 0.0 | 0.00 | 0.00 | 0.00 | 82 | 1010.7 |
| 20260505223606 | 41 | 0 | 0.0 | 0.0 | 0.00 | 0.00 | 0.00 | 81 | 1010.8 |
| 20260505222706 | 41 | 0 | 0.0 | 0.0 | 0.00 | 0.00 | 0.00 | 80 | 1010.8 |
| 20260505221827 | 42 | 0 | 0.0 | 0.0 | 0.00 | 0.00 | 0.00 | 79 | 1010.8 |
| 20260505220906 | 42 | 0 | 0.0 | 0.0 | 0.00 | 0.00 | 0.00 | 79 | 1010.7 |
| 20260505220006 | 43 | 347 | 0.0 | 0.9 | 0.00 | 0.00 | 0.00 | 78 | 1010.7 |
| 20260505215406 | 43 | 352 | 0.9 | 4.3 | 0.00 | 0.00 | 0.00 | 78 | 1010.8 |
| 20260505214506 | 43 | 351 | 0.0 | 4.3 | 0.00 | 0.00 | 0.00 | 78 | 1010.7 |
| 20260505213606 | 44 | 332 | 0.0 | 1.7 | 0.00 | 0.00 | 0.00 | 78 | 1010.6 |
| 20260505212706 | 44 | 350 | 0.0 | 1.7 | 0.00 | 0.00 | 0.00 | 78 | 1010.7 |
| 20260505211806 | 45 | 344 | 0.9 | 4.3 | 0.00 | 0.00 | 0.00 | 78 | 1010.8 |
| 20260505210906 | 45 | 338 | 0.0 | 2.6 | 0.00 | 0.00 | 0.00 | 78 | 1010.8 |
| 20260505210027 | 45 | 342 | 0.9 | 2.6 | 0.00 | 0.00 | 0.00 | 78 | 1010.9 |
| 20260505205406 | 45 | 345 | 0.0 | 0.9 | 0.00 | 0.00 | 0.00 | 78 | 1010.8 |
| 20260505204506 | 45 | 356 | 0.9 | 3.5 | 0.00 | 0.00 | 0.00 | 78 | 1010.8 |
| 20260505203606 | 45 | 1 | 0.9 | 4.3 | 0.00 | 0.00 | 0.00 | 78 | 1010.8 |
| 20260505202706 | 45 | 25 | 0.0 | 2.6 | 0.00 | 0.00 | 0.00 | 77 | 1010.8 |
| 20260505201805 | 46 | 357 | 0.0 | 3.5 | 0.00 | 0.00 | 0.00 | 76 | 1010.6 |
| 20260505200906 | 46 | 352 | 0.9 | 5.2 | 0.00 | 0.00 | 0.00 | 76 | 1010.5 |
| 20260505200006 | 46 | 10 | 0.9 | 5.2 | 0.00 | 0.00 | 0.00 | 75 | 1010.5 |
| 20260505195405 | 46 | 25 | 0.9 | 6.1 | 0.00 | 0.00 | 0.00 | 74 | 1010.5 |
| 20260505194505 | 46 | 22 | 1.7 | 5.2 | 0.00 | 0.00 | 0.00 | 73 | 1010.5 |
| 20260505193606 | 46 | 13 | 0.0 | 5.2 | 0.00 | 0.00 | 0.00 | 73 | 1010.4 |
| 20260505192705 | 46 | 39 | 1.7 | 7.8 | 0.00 | 0.00 | 0.00 | 72 | 1010.4 |
| 20260505191826 | 46 | 39 | 1.7 | 6.1 | 0.00 | 0.00 | 0.00 | 73 | 1010.4 |
| 20260505190905 | 46 | 13 | 1.7 | 6.1 | 0.00 | 0.00 | 0.00 | 73 | 1010.4 |
| 20260505190006 | 46 | 21 | 1.7 | 6.1 | 0.00 | 0.00 | 0.00 | 73 | 1010.1 |
| 20260505185405 | 46 | 15 | 0.9 | 5.2 | 0.00 | 0.00 | 0.00 | 73 | 1010.1 |
| 20260505184505 | 46 | 12 | 1.7 | 7.0 | 0.00 | 0.00 | 0.00 | 73 | 1010.1 |
| 20260505183605 | 47 | 52 | 1.7 | 7.8 | 0.00 | 0.00 | 0.00 | 73 | 1010.0 |
| 20260505182705 | 47 | 41 | 0.9 | 5.2 | 0.00 | 0.00 | 0.00 | 73 | 1010.1 |
| 20260505181826 | 47 | 3 | 1.7 | 7.0 | 0.00 | 0.00 | 0.00 | 72 | 1010.1 |
| 20260505180905 | 47 | 4 | 1.7 | 7.8 | 0.00 | 0.00 | 0.00 | 71 | 1010.0 |
| 20260505180005 | 47 | 22 | 1.7 | 7.8 | 0.00 | 0.00 | 0.00 | 71 | 1009.9 |
| 20260505175426 | 48 | 29 | 1.7 | 6.1 | 0.00 | 0.00 | 0.00 | 72 | 1009.9 |
| 20260505174505 | 48 | 7 | 1.7 | 7.0 | 0.00 | 0.00 | 0.00 | 72 | 1009.9 |
| 20260505173626 | 48 | 358 | 1.7 | 6.1 | 0.00 | 0.00 | 0.00 | 71 | 1010.0 |
| 20260505172705 | 48 | 20 | 2.6 | 13.0 | 0.00 | 0.00 | 0.00 | 71 | 1010.0 |
| 20260505171826 | 48 | 27 | 1.7 | 13.0 | 0.00 | 0.00 | 0.00 | 71 | 1009.9 |
| 20260505170905 | 48 | 49 | 1.7 | 6.1 | 0.00 | 0.00 | 0.00 | 71 | 1010.0 |
| 20260505170005 | 48 | 23 | 2.6 | 7.8 | 0.00 | 0.00 | 0.00 | 71 | 1009.9 |
| 20260505165406 | 48 | 18 | 1.7 | 8.7 | 0.00 | 0.00 | 0.00 | 71 | 1009.9 |
| 20260505164506 | 48 | 38 | 1.7 | 5.2 | 0.00 | 0.00 | 0.00 | 71 | 1009.9 |
| 20260505163626 | 48 | 28 | 1.7 | 7.0 | 0.00 | 0.00 | 0.00 | 71 | 1009.8 |
| 20260505162705 | 48 | 51 | 1.7 | 6.1 | 0.00 | 0.00 | 0.00 | 71 | 1009.8 |
| 20260505161805 | 48 | 37 | 2.6 | 7.0 | 0.00 | 0.00 | 0.00 | 72 | 1009.8 |
| 20260505160905 | 48 | 20 | 1.7 | 7.8 | 0.00 | 0.00 | 0.00 | 72 | 1009.7 |
| 20260505152705 | 48 | 38 | 1.7 | 7.8 | 0.00 | 0.00 | 0.00 | 74 | 1009.4 |
| 20260505151805 | 48 | 59 | 1.7 | 6.1 | 0.00 | 0.00 | 0.00 | 75 | 1009.4 |
| 20260505150905 | 48 | 63 | 2.6 | 10.4 | 0.00 | 0.00 | 0.00 | 74 | 1009.3 |
| 20260505124505 | 51 | 89 | 1.7 | 5.2 | 0.00 | 0.00 | 0.00 | 68 | 1008.8 |
| 20260505123604 | 51 | 83 | 1.7 | 6.1 | 0.00 | 0.00 | 0.00 | 66 | 1008.8 |
| 20260505122704 | 50 | 34 | 1.7 | 8.7 | 0.00 | 0.00 | 0.00 | 65 | 1008.8 |
| 20260505121804 | 51 | 1 | 1.7 | 7.8 | 0.00 | 0.00 | 0.00 | 68 | 1008.8 |
| 20260505120904 | 51 | 74 | 2.6 | 9.6 | 0.00 | 0.00 | 0.00 | 70 | 1008.7 |
| 20260505120005 | 50 | 65 | 2.6 | 7.0 | 0.00 | 0.00 | 0.00 | 73 | 1008.6 |
| 20260505115404 | 50 | 42 | 1.7 | 10.4 | 0.00 | 0.00 | 0.00 | 75 | 1008.5 |
| 20260505114504 | 50 | 34 | 2.6 | 8.7 | 0.00 | 0.00 | 0.00 | 76 | 1008.5 |
| 20260505113604 | 50 | 36 | 2.6 | 10.4 | 0.00 | 0.00 | 0.00 | 76 | 1008.5 |
| 20260505112726 | 51 | 8 | 2.6 | 10.4 | 0.00 | 0.00 | 0.00 | 75 | 1008.3 |
| 20260505111804 | 52 | 22 | 1.7 | 6.1 | 0.00 | 0.00 | 0.00 | 74 | 1008.3 |
| 20260505110904 | 53 | 56 | 1.7 | 6.1 | 0.00 | 0.00 | 0.00 | 71 | 1008.2 |
| 20260505101804 | 54 | 345 | 0.9 | 4.3 | 0.00 | 0.00 | 0.00 | 69 | 1008.0 |
| 20260505100904 | 54 | 324 | 0.9 | 4.3 | 0.00 | 0.00 | 0.00 | 68 | 1008.0 |
| 20260505100025 | 54 | 17 | 0.9 | 4.3 | 0.00 | 0.00 | 0.00 | 69 | 1008.1 |
| 20260505095404 | 53 | 31 | 0.9 | 3.5 | 0.00 | 0.00 | 0.00 | 68 | 1008.1 |
| 20260505094504 | 53 | 8 | 0.9 | 4.3 | 0.00 | 0.00 | 0.00 | 68 | 1008.1 |
| 20260505093604 | 53 | 337 | 0.9 | 2.6 | 0.00 | 0.00 | 0.00 | 70 | 1008.1 |
| 20260505092705 | 53 | 329 | 0.9 | 5.2 | 0.00 | 0.00 | 0.00 | 72 | 1008.0 |
| 20260505091805 | 52 | 330 | 0.9 | 5.2 | 0.00 | 0.00 | 0.00 | 71 | 1008.0 |
| 20260505090904 | 52 | 345 | 0.9 | 6.1 | 0.00 | 0.00 | 0.00 | 71 | 1008.1 |
| 20260505090004 | 52 | 338 | 0.9 | 5.2 | 0.00 | 0.00 | 0.00 | 72 | 1008.2 |
| 20260505085404 | 52 | 335 | 0.9 | 3.5 | 0.00 | 0.00 | 0.00 | 71 | 1008.0 |
| 20260505084504 | 52 | 346 | 0.9 | 5.2 | 0.00 | 0.00 | 0.00 | 71 | 1008.0 |
| 20260505083626 | 52 | 334 | 0.0 | 3.5 | 0.00 | 0.00 | 0.00 | 71 | 1008.0 |
| 20260505082704 | 52 | 331 | 0.0 | 1.7 | 0.00 | 0.00 | 0.00 | 72 | 1008.1 |
| 20260505081804 | 52 | 327 | 0.0 | 2.6 | 0.00 | 0.00 | 0.00 | 74 | 1008.1 |
| 20260505080905 | 51 | 345 | 0.0 | 1.7 | 0.00 | 0.00 | 0.00 | 74 | 1007.9 |
| 20260505080004 | 50 | 336 | 0.0 | 0.9 | 0.00 | 0.00 | 0.00 | 75 | 1008.0 |
| 20260505075404 | 50 | 302 | 0.0 | 1.7 | 0.00 | 0.00 | 0.00 | 75 | 1008.0 |
| 20260505074504 | 50 | 322 | 0.9 | 2.6 | 0.00 | 0.00 | 0.00 | 75 | 1007.9 |
| 20260505073604 | 50 | 326 | 0.9 | 2.6 | 0.00 | 0.00 | 0.00 | 74 | 1008.0 |
| 20260505072704 | 50 | 324 | 0.9 | 3.5 | 0.00 | 0.00 | 0.00 | 75 | 1007.9 |
| 20260505071824 | 50 | 321 | 0.9 | 3.5 | 0.00 | 0.00 | 0.00 | 74 | 1008.0 |
| 20260505070904 | 51 | 322 | 0.9 | 5.2 | 0.00 | 0.00 | 0.00 | 75 | 1008.0 |
| 20260505070004 | 50 | 319 | 0.9 | 4.3 | 0.00 | 0.00 | 0.00 | 75 | 1008.0 |
| 20260505065403 | 50 | 319 | 0.9 | 3.5 | 0.00 | 0.00 | 0.00 | 76 | 1008.1 |
| 20260505064524 | 49 | 319 | 0.9 | 4.3 | 0.00 | 0.00 | 0.00 | 77 | 1008.0 |
| 20260505063603 | 49 | 315 | 0.9 | 7.0 | 0.00 | 0.00 | 0.00 | 77 | 1008.0 |
| 20260505062703 | 48 | 314 | 0.9 | 4.3 | 0.00 | 0.00 | 0.00 | 80 | 1008.0 |
| 20260505061804 | 46 | 319 | 0.0 | 4.3 | 0.00 | 0.00 | 0.00 | 82 | 1008.0 |
| 20260505060903 | 44 | 327 | 0.9 | 2.6 | 0.00 | 0.00 | 0.00 | 84 | 1008.0 |
| 20260505060004 | 43 | 331 | 0.0 | 2.6 | 0.00 | 0.00 | 0.00 | 84 | 1008.0 |
| 20260505055403 | 42 | 327 | 0.0 | 2.6 | 0.00 | 0.00 | 0.00 | 85 | 1007.9 |